NEE-02 KRYSAOR

Last updated on Tue Jul 14 2026 00:03:53 GMT+0000 (Coordinated Universal Time)

1 39441U 13066AB 26194.39078792 .00001249 00000+0 14151-3 0 9994 2 39441 97.8898 133.4211 0065594 345.2283 14.7014 14.86734463680099
UTC large
Height (km)
Speed (km/s)
/
Latitude / Longitude
Inclination (degrees)
Orbital Period (minutes)
Azimuth
Elevation
Range (km)
Doppler Factor

Next 0 passes for location: London (51.5072 / 0.1276)

No passes found over London.
NEE-02 KRYSAOR